Regional Weather Roundup
Issued by NWS

Home | Current Version | Previous Version | Graphics & Text | Print | Product List | Glossary On
Versions: 1 2 3 4 5 6 7 8 9 10 11 12 13 14 15 16 17 18 19 20 21 22 23 24 25 26 27
000
ASUS45 KBOI 240210
RWRID

IDAHO REGIONAL WEATHER ROUNDUP
NATIONAL WEATHER SERVICE BOISE ID
800 PM MDT SUN JUL 23 2017

NOTE: "FAIR" INDICATES FEW OR NO CLOUDS BELOW 12000 FEET
WITH NO SIGNIFICANT WEATHER AND/OR OBSTRUCTIONS TO VISIBILITY

IDZ012-014-240300-
SOUTHWEST IDAHO


CITY           SKY/WX    TMP DP  RH WIND       PRES   REMARKS
BOISE          SUNNY     95  40  14 NW9       29.84F HX  91
CALDWELL       SUNNY     96  49  20 CALM      29.82F HX  93
MOUNTAIN HOME  SUNNY     98  38  12 NW10      29.85F HX  93
$$

IDZ016-017-240300-
SOUTHCENTRAL IDAHO


CITY           SKY/WX    TMP DP  RH WIND       PRES   REMARKS
BURLEY         MOSUNNY   87  41  19 W9        29.94S
JEROME         SUNNY     90  43  19 CALM      29.95F
TWIN FALLS     MOSUNNY   91  36  14 NW3       29.96S
$$

IDZ019>023-240300-
SOUTHEAST IDAHO


CITY           SKY/WX    TMP DP  RH WIND       PRES   REMARKS
IDAHO FALLS    CLEAR     89  39  17 S10       29.98F
POCATELLO      PTCLDY    91  39  16 SW6       29.97S
REXBURG        CLEAR     85  45  24 S9        29.99F
$$

IDZ006-010-011-018-031-032-240300-
CENTRAL IDAHO MOUNTAINS


CITY           SKY/WX    TMP DP  RH WIND       PRES   REMARKS
MCCALL         SUNNY     84  32  15 W5        30.01F
HAILEY         SUNNY     84  36  17 SW14G22   30.03S
STANLEY          N/A     83  24  11 NW5       30.13S
SALMON         NOT AVBL
CHALLIS        SUNNY     89  32  13 W12       29.95R
$$

IDZ002-004-006-007-026-240300-
NORTHERN IDAHO


CITY           SKY/WX    TMP DP  RH WIND       PRES   REMARKS
LEWISTON       MOSUNNY   97  47  18 W12       29.78S HX  93
LOWELL           N/A     81  58  45 CALM      29.78R
COEUR D`ALENE  SUNNY     89  52  28 W12       29.83F
MULLAN PASS    SUNNY     72  42  34 VRB5      30.09F
$$




USA.gov is the U.S. government's official web portal to all federal, state and local government web resources and services.